Time,TemperatureF,DewpointF,PressureIn,WindDirection,WindDirectionDegrees,WindSpeedMPH,WindSpeedGustMPH,Humidity,HourlyPrecipIn,Conditions,Clouds,dailyrainin,SoftwareType,DateUTC
2013-07-07 00:01:00,83.9,73.0,30.03,SW,215,1.0,0.0,69,0.00,,,0.00,oem by Ross Wheeler,2013-07-07 04:01:00,
2013-07-07 00:10:00,83.7,73.0,30.03,SSW,207,0.0,0.0,69,0.00,,,0.00,oem by Ross Wheeler,2013-07-07 04:10:00,
2013-07-07 00:15:00,83.7,73.0,30.03,WNW,302,0.0,0.0,70,0.00,,,0.00,oem by Ross Wheeler,2013-07-07 04:15:00,
2013-07-07 00:20:00,83.7,73.0,30.03,SW,220,3.0,0.0,70,0.00,,,0.00,oem by Ross Wheeler,2013-07-07 04:20:00,
2013-07-07 00:25:00,83.5,73.0,30.03,South,191,2.0,0.0,70,0.00,,,0.00,oem by Ross Wheeler,2013-07-07 04:25:00,
2013-07-07 00:30:00,83.5,73.0,30.03,SSW,206,0.0,0.0,70,0.00,,,0.00,oem by Ross Wheeler,2013-07-07 04:30:00,
2013-07-07 00:40:00,83.3,73.0,30.03,SSW,205,0.0,0.0,71,0.00,,,0.00,oem by Ross Wheeler,2013-07-07 04:40:00,
2013-07-07 00:45:00,83.2,73.0,30.03,SW,216,2.0,0.0,72,0.00,,,0.00,oem by Ross Wheeler,2013-07-07 04:45:00,
2013-07-07 00:55:00,82.8,73.0,30.03,WSW,251,3.0,0.0,73,0.00,,,0.00,oem by Ross Wheeler,2013-07-07 04:55:00,
2013-07-07 01:01:00,82.6,73.0,30.03,WSW,243,1.0,0.0,73,0.00,,,0.00,oem by Ross Wheeler,2013-07-07 05:01:00,
2013-07-07 01:10:00,82.2,73.0,30.03,SSW,206,2.0,0.0,74,0.00,,,0.00,oem by Ross Wheeler,2013-07-07 05:10:00,
2013-07-07 01:15:00,82.0,73.0,30.03,SW,217,4.0,0.0,74,0.00,,,0.00,oem by Ross Wheeler,2013-07-07 05:15:00,
2013-07-07 01:25:00,81.8,73.0,30.02,SW,222,5.0,0.0,75,0.00,,,0.00,oem by Ross Wheeler,2013-07-07 05:25:00,
2013-07-07 01:30:00,81.6,73.0,30.02,SW,222,2.0,0.0,75,0.00,,,0.00,oem by Ross Wheeler,2013-07-07 05:30:00,
2013-07-07 01:40:00,81.6,73.0,30.02,SSW,198,7.0,0.0,75,0.00,,,0.00,oem by Ross Wheeler,2013-07-07 05:40:00,
2013-07-07 01:45:00,81.4,73.0,30.02,SSW,209,6.0,0.0,75,0.00,,,0.00,oem by Ross Wheeler,2013-07-07 05:45:00,
2013-07-07 01:55:00,81.4,73.0,30.02,SW,216,1.0,0.0,75,0.00,,,0.00,oem by Ross Wheeler,2013-07-07 05:55:00,
2013-07-07 02:00:00,81.2,73.0,30.02,SSW,212,5.0,0.0,75,0.00,,,0.00,oem by Ross Wheeler,2013-07-07 06:00:00,
2013-07-07 02:10:00,81.2,73.0,30.02,SW,220,2.0,0.0,75,0.00,,,0.00,oem by Ross Wheeler,2013-07-07 06:10:00,
2013-07-07 02:15:00,81.4,72.0,30.02,SSW,213,1.0,0.0,74,0.00,,,0.00,oem by Ross Wheeler,2013-07-07 06:15:00,
2013-07-07 02:25:00,81.4,72.0,30.01,West,268,0.0,0.0,74,0.00,,,0.00,oem by Ross Wheeler,2013-07-07 06:25:00,
2013-07-07 02:30:00,81.4,72.0,30.01,South,191,0.0,0.0,74,0.00,,,0.00,oem by Ross Wheeler,2013-07-07 06:30:00,
2013-07-07 02:40:00,81.4,73.0,30.01,SSW,200,6.0,0.0,75,0.00,,,0.00,oem by Ross Wheeler,2013-07-07 06:40:00,
2013-07-07 02:45:00,81.4,72.0,30.01,SW,219,2.0,0.0,74,0.00,,,0.00,oem by Ross Wheeler,2013-07-07 06:45:00,
2013-07-07 02:55:00,81.2,73.0,30.01,SW,224,0.0,0.0,75,0.00,,,0.00,oem by Ross Wheeler,2013-07-07 06:55:00,
2013-07-07 03:00:00,81.2,73.0,30.01,SW,224,1.0,0.0,75,0.00,,,0.00,oem by Ross Wheeler,2013-07-07 07:00:00,
2013-07-07 03:10:00,80.8,72.0,30.01,SSW,196,2.0,0.0,75,0.00,,,0.00,oem by Ross Wheeler,2013-07-07 07:10:00,
2013-07-07 03:15:00,80.8,73.0,30.01,SSW,213,1.0,0.0,76,0.00,,,0.00,oem by Ross Wheeler,2013-07-07 07:15:00,
2013-07-07 03:25:00,80.6,72.0,30.01,SW,219,0.0,0.0,76,0.00,,,0.00,oem by Ross Wheeler,2013-07-07 07:25:00,
2013-07-07 03:30:00,80.4,72.0,30.01,SSW,203,1.0,0.0,76,0.00,,,0.00,oem by Ross Wheeler,2013-07-07 07:30:00,
2013-07-07 03:40:00,80.3,72.0,30.01,SSW,199,1.0,0.0,76,0.00,,,0.00,oem by Ross Wheeler,2013-07-07 07:40:00,
2013-07-07 03:45:00,80.3,73.0,30.01,SSW,205,1.0,0.0,77,0.00,,,0.00,oem by Ross Wheeler,2013-07-07 07:45:00,
2013-07-07 03:55:00,80.1,72.0,30.01,SSW,192,0.0,0.0,77,0.00,,,0.00,oem by Ross Wheeler,2013-07-07 07:55:00,
2013-07-07 04:00:00,80.1,72.0,30.01,SSW,209,2.0,0.0,77,0.00,,,0.00,oem by Ross Wheeler,2013-07-07 08:00:00,
2013-07-07 04:10:00,79.9,72.0,30.01,WSW,247,1.0,0.0,77,0.00,,,0.00,oem by Ross Wheeler,2013-07-07 08:10:00,
2013-07-07 04:15:00,79.7,72.0,30.01,SSW,207,0.0,0.0,78,0.00,,,0.00,oem by Ross Wheeler,2013-07-07 08:15:00,
2013-07-07 04:25:00,79.5,72.0,30.01,SSW,206,2.0,0.0,78,0.00,,,0.00,oem by Ross Wheeler,2013-07-07 08:25:00,
2013-07-07 04:30:00,79.5,72.0,30.01,SSW,207,1.0,0.0,78,0.00,,,0.00,oem by Ross Wheeler,2013-07-07 08:30:00,
2013-07-07 04:40:00,79.3,72.0,30.00,SSW,199,1.0,0.0,78,0.00,,,0.00,oem by Ross Wheeler,2013-07-07 08:40:00,
2013-07-07 04:45:00,79.1,72.0,30.00,SW,216,0.0,0.0,79,0.00,,,0.00,oem by Ross Wheeler,2013-07-07 08:45:00,
2013-07-07 04:55:00,79.0,72.0,30.00,SW,219,0.0,0.0,80,0.00,,,0.00,oem by Ross Wheeler,2013-07-07 08:55:00,
2013-07-07 05:00:00,78.8,72.0,30.00,SSW,200,1.0,0.0,80,0.00,,,0.00,oem by Ross Wheeler,2013-07-07 09:00:00,
2013-07-07 05:10:00,78.6,72.0,30.00,SSW,209,1.0,0.0,81,0.00,,,0.00,oem by Ross Wheeler,2013-07-07 09:10:00,
2013-07-07 05:15:00,78.4,72.0,30.00,SW,216,0.0,0.0,81,0.00,,,0.00,oem by Ross Wheeler,2013-07-07 09:15:00,
2013-07-07 05:25:00,78.2,72.0,30.01,SSW,210,0.0,0.0,81,0.00,,,0.00,oem by Ross Wheeler,2013-07-07 09:25:00,
2013-07-07 05:30:00,78.0,72.0,30.01,SSW,210,0.0,0.0,82,0.00,,,0.00,oem by Ross Wheeler,2013-07-07 09:30:00,
2013-07-07 05:40:00,77.8,72.0,30.01,SSW,210,0.0,0.0,83,0.00,,,0.00,oem by Ross Wheeler,2013-07-07 09:40:00,
2013-07-07 05:45:00,77.7,72.0,30.01,SSW,212,2.0,0.0,83,0.00,,,0.00,oem by Ross Wheeler,2013-07-07 09:45:00,
2013-07-07 05:55:00,77.5,72.0,30.01,SW,226,1.0,0.0,83,0.00,,,0.00,oem by Ross Wheeler,2013-07-07 09:55:00,
2013-07-07 06:00:00,77.5,72.0,30.01,SW,222,2.0,0.0,84,0.00,,,0.00,oem by Ross Wheeler,2013-07-07 10:00:00,
2013-07-07 06:10:00,77.3,72.0,30.01,SW,216,0.0,0.0,84,0.00,,,0.00,oem by Ross Wheeler,2013-07-07 10:10:00,
2013-07-07 06:15:00,77.3,72.0,30.01,SSW,205,2.0,0.0,84,0.00,,,0.00,oem by Ross Wheeler,2013-07-07 10:15:00,
2013-07-07 06:25:00,77.3,72.0,30.01,SSW,213,0.0,0.0,84,0.00,,,0.00,oem by Ross Wheeler,2013-07-07 10:25:00,
2013-07-07 06:30:00,77.5,72.0,30.01,SSW,203,2.0,0.0,84,0.00,,,0.00,oem by Ross Wheeler,2013-07-07 10:30:00,
2013-07-07 06:40:00,77.5,72.0,30.01,SW,223,5.0,0.0,83,0.00,,,0.00,oem by Ross Wheeler,2013-07-07 10:40:00,
2013-07-07 06:45:00,77.7,72.0,30.01,SW,231,5.0,0.0,82,0.00,,,0.00,oem by Ross Wheeler,2013-07-07 10:45:00,
2013-07-07 06:55:00,77.8,72.0,30.01,SW,219,1.0,0.0,81,0.00,,,0.00,oem by Ross Wheeler,2013-07-07 10:55:00,
2013-07-07 07:00:00,77.8,72.0,30.01,SSW,206,7.0,0.0,81,0.00,,,0.00,oem by Ross Wheeler,2013-07-07 11:00:00,
2013-07-07 07:10:00,78.0,72.0,30.01,South,172,0.0,0.0,81,0.00,,,0.00,oem by Ross Wheeler,2013-07-07 11:10:00,
2013-07-07 07:15:00,78.2,72.0,30.01,SSW,213,2.0,0.0,81,0.00,,,0.00,oem by Ross Wheeler,2013-07-07 11:15:00,
2013-07-07 07:25:00,78.2,72.0,30.02,South,189,7.0,0.0,81,0.00,,,0.00,oem by Ross Wheeler,2013-07-07 11:25:00,
2013-07-07 07:30:00,78.2,72.0,30.02,SSW,199,7.0,0.0,80,0.00,,,0.00,oem by Ross Wheeler,2013-07-07 11:30:00,
2013-07-07 07:40:00,78.4,72.0,30.02,SSW,213,1.0,0.0,80,0.00,,,0.00,oem by Ross Wheeler,2013-07-07 11:40:00,
2013-07-07 07:45:00,78.4,72.0,30.02,SSW,200,3.0,0.0,80,0.00,,,0.00,oem by Ross Wheeler,2013-07-07 11:45:00,
2013-07-07 07:55:00,78.6,72.0,30.02,SSW,200,2.0,0.0,80,0.00,,,0.00,oem by Ross Wheeler,2013-07-07 11:55:00,
2013-07-07 08:00:00,78.6,72.0,30.02,SSW,210,6.0,0.0,79,0.00,,,0.00,oem by Ross Wheeler,2013-07-07 12:00:00,
2013-07-07 08:10:00,79.0,72.0,30.02,SW,230,1.0,0.0,78,0.00,,,0.00,oem by Ross Wheeler,2013-07-07 12:10:00,
2013-07-07 08:15:00,79.1,72.0,30.02,SSW,206,5.0,0.0,78,0.00,,,0.00,oem by Ross Wheeler,2013-07-07 12:15:00,
2013-07-07 08:25:00,79.3,72.0,30.01,SSW,203,1.0,0.0,78,0.00,,,0.00,oem by Ross Wheeler,2013-07-07 12:25:00,
2013-07-07 08:30:00,79.5,72.0,30.01,SW,215,0.0,0.0,78,0.00,,,0.00,oem by Ross Wheeler,2013-07-07 12:30:00,
2013-07-07 08:40:00,79.9,72.0,30.02,SW,223,1.0,0.0,77,0.00,,,0.00,oem by Ross Wheeler,2013-07-07 12:40:00,
2013-07-07 08:45:00,80.1,72.0,30.02,West,270,6.0,0.0,76,0.00,,,0.00,oem by Ross Wheeler,2013-07-07 12:45:00,
2013-07-07 08:55:00,80.4,72.0,30.01,SW,220,5.0,0.0,76,0.00,,,0.00,oem by Ross Wheeler,2013-07-07 12:55:00,
2013-07-07 09:00:00,80.6,72.0,30.01,SSW,203,5.0,0.0,76,0.00,,,0.00,oem by Ross Wheeler,2013-07-07 13:00:00,
2013-07-07 09:10:00,81.0,72.0,30.01,SW,222,4.0,0.0,74,0.00,,,0.00,oem by Ross Wheeler,2013-07-07 13:10:00,
2013-07-07 09:15:00,81.2,72.0,30.01,SSW,200,0.0,0.0,74,0.00,,,0.00,oem by Ross Wheeler,2013-07-07 13:15:00,
2013-07-07 09:25:00,81.6,72.0,30.01,SSW,210,0.0,0.0,73,0.00,,,0.00,oem by Ross Wheeler,2013-07-07 13:25:00,
2013-07-07 09:30:00,81.8,73.0,30.01,SW,215,3.0,0.0,74,0.00,,,0.00,oem by Ross Wheeler,2013-07-07 13:30:00,
2013-07-07 09:40:00,82.2,73.0,30.01,WNW,288,0.0,0.0,74,0.00,,,0.00,oem by Ross Wheeler,2013-07-07 13:40:00,
2013-07-07 09:45:00,82.4,73.0,30.01,South,185,6.0,0.0,73,0.00,,,0.00,oem by Ross Wheeler,2013-07-07 13:45:00,
2013-07-07 09:55:00,82.6,72.0,30.00,SSW,206,0.0,0.0,71,0.00,,,0.00,oem by Ross Wheeler,2013-07-07 13:55:00,
2013-07-07 10:00:00,82.8,73.0,30.00,SSW,207,2.0,0.0,71,0.00,,,0.00,oem by Ross Wheeler,2013-07-07 14:00:00,
2013-07-07 10:10:00,83.2,72.0,30.00,WSW,248,0.0,0.0,70,0.00,,,0.00,oem by Ross Wheeler,2013-07-07 14:10:00,
2013-07-07 10:15:00,83.3,72.0,30.00,SW,236,0.0,0.0,69,0.00,,,0.00,oem by Ross Wheeler,2013-07-07 14:15:00,
2013-07-07 10:25:00,83.9,71.0,30.00,SW,217,2.0,0.0,66,0.00,,,0.00,oem by Ross Wheeler,2013-07-07 14:25:00,
2013-07-07 10:30:00,84.1,73.0,30.00,SW,226,2.0,0.0,69,0.00,,,0.00,oem by Ross Wheeler,2013-07-07 14:30:00,
2013-07-07 10:40:00,84.5,73.0,30.00,SSW,210,5.0,0.0,69,0.00,,,0.00,oem by Ross Wheeler,2013-07-07 14:40:00,
2013-07-07 10:45:00,84.7,73.0,30.00,SW,236,0.0,0.0,68,0.00,,,0.00,oem by Ross Wheeler,2013-07-07 14:45:00,
2013-07-07 10:55:00,84.9,72.0,30.00,SW,219,6.0,0.0,65,0.00,,,0.00,oem by Ross Wheeler,2013-07-07 14:55:00,
2013-07-07 11:00:00,84.9,72.0,30.00,SW,217,6.0,0.0,65,0.00,,,0.00,oem by Ross Wheeler,2013-07-07 15:00:00,
2013-07-07 11:10:00,85.1,72.0,29.99,SSW,213,3.0,0.0,66,0.00,,,0.00,oem by Ross Wheeler,2013-07-07 15:10:00,
2013-07-07 11:15:00,85.1,72.0,29.99,SW,233,1.0,0.0,65,0.00,,,0.00,oem by Ross Wheeler,2013-07-07 15:15:00,
2013-07-07 11:25:00,85.7,73.0,29.99,SW,234,2.0,0.0,66,0.00,,,0.00,oem by Ross Wheeler,2013-07-07 15:25:00,
2013-07-07 11:30:00,86.2,73.0,29.99,SSW,192,0.0,0.0,64,0.00,,,0.00,oem by Ross Wheeler,2013-07-07 15:30:00,
2013-07-07 11:40:00,86.8,72.0,29.99,South,191,1.0,0.0,61,0.00,,,0.00,oem by Ross Wheeler,2013-07-07 15:40:00,
2013-07-07 11:45:00,87.4,72.0,29.99,SW,230,6.0,0.0,61,0.00,,,0.00,oem by Ross Wheeler,2013-07-07 15:45:00,
2013-07-07 11:55:00,88.7,73.0,29.98,SSW,213,0.0,0.0,60,0.00,,,0.00,oem by Ross Wheeler,2013-07-07 15:55:00,
2013-07-07 12:00:00,89.1,72.0,29.98,SSE,151,1.0,0.0,58,0.00,,,0.00,oem by Ross Wheeler,2013-07-07 16:00:00,
2013-07-07 12:10:00,89.9,75.0,29.98,SW,220,8.0,0.0,62,0.00,,,0.00,oem by Ross Wheeler,2013-07-07 16:10:00,
2013-07-07 12:15:00,90.2,75.0,29.98,SW,222,4.0,0.0,62,0.00,,,0.00,oem by Ross Wheeler,2013-07-07 16:15:00,
2013-07-07 12:25:00,91.0,74.0,29.98,SSW,203,1.0,0.0,58,0.00,,,0.00,oem by Ross Wheeler,2013-07-07 16:25:00,
2013-07-07 12:30:00,91.3,73.0,29.98,SSW,206,2.0,0.0,56,0.00,,,0.00,oem by Ross Wheeler,2013-07-07 16:30:00,
2013-07-07 12:40:00,91.9,74.0,29.98,SW,233,3.0,0.0,56,0.00,,,0.00,oem by Ross Wheeler,2013-07-07 16:40:00,
2013-07-07 12:45:00,92.4,74.0,29.97,SW,215,2.0,0.0,56,0.00,,,0.00,oem by Ross Wheeler,2013-07-07 16:45:00,
2013-07-07 12:55:00,93.2,74.0,29.97,SSW,210,1.0,0.0,54,0.00,,,0.00,oem by Ross Wheeler,2013-07-07 16:55:00,
2013-07-07 13:00:00,93.2,72.0,29.97,SSW,199,1.0,0.0,51,0.00,,,0.00,oem by Ross Wheeler,2013-07-07 17:00:00,
2013-07-07 13:10:00,93.0,73.0,29.97,SW,227,1.0,0.0,52,0.00,,,0.00,oem by Ross Wheeler,2013-07-07 17:10:00,
2013-07-07 13:15:00,93.0,74.0,29.96,South,172,0.0,0.0,54,0.00,,,0.00,oem by Ross Wheeler,2013-07-07 17:15:00,
2013-07-07 13:25:00,93.2,73.0,29.96,SSW,206,3.0,0.0,52,0.00,,,0.00,oem by Ross Wheeler,2013-07-07 17:25:00,
2013-07-07 13:30:00,93.5,73.0,29.96,SW,217,3.0,0.0,51,0.00,,,0.00,oem by Ross Wheeler,2013-07-07 17:30:00,
2013-07-07 13:40:00,93.5,73.0,29.96,West,275,0.0,0.0,51,0.00,,,0.00,oem by Ross Wheeler,2013-07-07 17:40:00,
2013-07-07 13:45:00,93.5,73.0,29.95,SW,229,2.0,0.0,52,0.00,,,0.00,oem by Ross Wheeler,2013-07-07 17:45:00,
2013-07-07 13:55:00,93.7,75.0,29.95,SSW,213,2.0,0.0,54,0.00,,,0.00,oem by Ross Wheeler,2013-07-07 17:55:00,
2013-07-07 14:00:00,93.9,73.0,29.95,West,260,6.0,0.0,50,0.00,,,0.00,oem by Ross Wheeler,2013-07-07 18:00:00,
2013-07-07 14:10:00,94.1,72.0,29.95,SSW,206,10.0,0.0,48,0.00,,,0.00,oem by Ross Wheeler,2013-07-07 18:10:00,
2013-07-07 14:15:00,94.1,73.0,29.94,South,174,2.0,0.0,51,0.00,,,0.00,oem by Ross Wheeler,2013-07-07 18:15:00,
2013-07-07 14:25:00,94.6,73.0,29.94,SSW,209,4.0,0.0,49,0.00,,,0.00,oem by Ross Wheeler,2013-07-07 18:25:00,
2013-07-07 14:30:00,94.8,74.0,29.94,WSW,243,6.0,0.0,51,0.00,,,0.00,oem by Ross Wheeler,2013-07-07 18:30:00,
2013-07-07 14:40:00,95.8,73.0,29.94,WSW,239,3.0,0.0,48,0.00,,,0.00,oem by Ross Wheeler,2013-07-07 18:40:00,
2013-07-07 14:45:00,95.5,74.0,29.93,WSW,239,1.0,0.0,50,0.00,,,0.00,oem by Ross Wheeler,2013-07-07 18:45:00,
2013-07-07 14:55:00,95.8,73.0,29.93,SSW,213,10.0,0.0,48,0.00,,,0.00,oem by Ross Wheeler,2013-07-07 18:55:00,
2013-07-07 15:00:00,95.5,73.0,29.93,SSW,209,8.0,0.0,48,0.00,,,0.00,oem by Ross Wheeler,2013-07-07 19:00:00,
2013-07-07 15:10:00,95.1,73.0,29.93,ESE,109,2.0,0.0,49,0.00,,,0.00,oem by Ross Wheeler,2013-07-07 19:10:00,
2013-07-07 15:15:00,94.8,74.0,29.92,SE,138,4.0,0.0,51,0.00,,,0.00,oem by Ross Wheeler,2013-07-07 19:15:00,
2013-07-07 15:25:00,93.9,75.0,29.92,SSW,207,10.0,0.0,54,0.00,,,0.00,oem by Ross Wheeler,2013-07-07 19:25:00,
2013-07-07 15:30:00,93.7,74.0,29.92,SSW,198,3.0,0.0,53,0.00,,,0.00,oem by Ross Wheeler,2013-07-07 19:30:00,
2013-07-07 15:40:00,94.1,74.0,29.92,SSW,210,2.0,0.0,53,0.00,,,0.00,oem by Ross Wheeler,2013-07-07 19:40:00,
2013-07-07 15:45:00,94.1,72.0,29.92,West,277,7.0,0.0,49,0.00,,,0.00,oem by Ross Wheeler,2013-07-07 19:45:00,
2013-07-07 15:55:00,94.6,73.0,29.92,SSW,193,1.0,0.0,50,0.00,,,0.00,oem by Ross Wheeler,2013-07-07 19:55:00,
2013-07-07 16:00:00,94.6,71.0,29.92,SSW,202,4.0,0.0,47,0.00,,,0.00,oem by Ross Wheeler,2013-07-07 20:00:00,
2013-07-07 16:10:00,94.8,72.0,29.92,SW,219,1.0,0.0,47,0.00,,,0.00,oem by Ross Wheeler,2013-07-07 20:10:00,
2013-07-07 16:15:00,94.8,72.0,29.91,SW,231,0.0,0.0,48,0.00,,,0.00,oem by Ross Wheeler,2013-07-07 20:15:00,
2013-07-07 16:25:00,94.8,72.0,29.91,WSW,244,2.0,0.0,47,0.00,,,0.00,oem by Ross Wheeler,2013-07-07 20:25:00,
2013-07-07 16:30:00,94.6,72.0,29.91,SSW,212,2.0,0.0,48,0.00,,,0.00,oem by Ross Wheeler,2013-07-07 20:30:00,
2013-07-07 16:40:00,94.8,72.0,29.91,SSW,212,7.0,0.0,48,0.00,,,0.00,oem by Ross Wheeler,2013-07-07 20:40:00,
2013-07-07 16:45:00,95.1,71.0,29.90,South,189,5.0,0.0,45,0.00,,,0.00,oem by Ross Wheeler,2013-07-07 20:45:00,
2013-07-07 16:55:00,94.6,71.0,29.90,WSW,243,3.0,0.0,47,0.00,,,0.00,oem by Ross Wheeler,2013-07-07 20:55:00,
2013-07-07 17:00:00,94.3,70.0,29.90,SSW,193,6.0,0.0,46,0.00,,,0.00,oem by Ross Wheeler,2013-07-07 21:00:00,
2013-07-07 17:10:00,94.6,73.0,29.90,WSW,240,1.0,0.0,50,0.00,,,0.00,oem by Ross Wheeler,2013-07-07 21:10:00,
2013-07-07 17:15:00,94.3,71.0,29.90,South,182,3.0,0.0,47,0.00,,,0.00,oem by Ross Wheeler,2013-07-07 21:15:00,
2013-07-07 17:25:00,94.3,71.0,29.90,WNW,292,4.0,0.0,47,0.00,,,0.00,oem by Ross Wheeler,2013-07-07 21:25:00,
2013-07-07 17:30:00,94.1,72.0,29.90,SSE,151,8.0,0.0,48,0.00,,,0.00,oem by Ross Wheeler,2013-07-07 21:30:00,
2013-07-07 17:40:00,93.7,72.0,29.90,WNW,285,5.0,0.0,50,0.00,,,0.00,oem by Ross Wheeler,2013-07-07 21:40:00,
2013-07-07 17:45:00,93.7,72.0,29.89,SSW,203,6.0,0.0,49,0.00,,,0.00,oem by Ross Wheeler,2013-07-07 21:45:00,
2013-07-07 17:55:00,93.5,71.0,29.89,SSW,203,3.0,0.0,48,0.00,,,0.00,oem by Ross Wheeler,2013-07-07 21:55:00,
2013-07-07 18:00:00,93.0,71.0,29.89,SW,230,2.0,0.0,49,0.00,,,0.00,oem by Ross Wheeler,2013-07-07 22:00:00,
2013-07-07 18:10:00,92.6,70.0,29.89,West,261,3.0,0.0,48,0.00,,,0.00,oem by Ross Wheeler,2013-07-07 22:10:00,
2013-07-07 18:15:00,92.4,71.0,29.90,SW,215,5.0,0.0,49,0.00,,,0.00,oem by Ross Wheeler,2013-07-07 22:15:00,
2013-07-07 18:25:00,91.7,71.0,29.90,SW,220,6.0,0.0,50,0.00,,,0.00,oem by Ross Wheeler,2013-07-07 22:25:00,
2013-07-07 18:30:00,91.7,71.0,29.91,SSW,206,3.0,0.0,51,0.00,,,0.00,oem by Ross Wheeler,2013-07-07 22:30:00,
2013-07-07 18:40:00,91.3,72.0,29.91,SW,222,3.0,0.0,53,0.00,,,0.00,oem by Ross Wheeler,2013-07-07 22:40:00,
2013-07-07 18:45:00,91.0,72.0,29.91,WNW,285,2.0,0.0,53,0.00,,,0.00,oem by Ross Wheeler,2013-07-07 22:45:00,
2013-07-07 18:55:00,90.8,71.0,29.91,SW,217,1.0,0.0,52,0.00,,,0.00,oem by Ross Wheeler,2013-07-07 22:55:00,
2013-07-07 19:00:00,90.6,71.0,29.91,NW,306,1.0,0.0,52,0.00,,,0.00,oem by Ross Wheeler,2013-07-07 23:00:00,
2013-07-07 19:10:00,90.4,71.0,29.91,SSW,202,7.0,0.0,53,0.00,,,0.00,oem by Ross Wheeler,2013-07-07 23:10:00,
2013-07-07 19:15:00,90.4,71.0,29.91,SSW,209,1.0,0.0,53,0.00,,,0.00,oem by Ross Wheeler,2013-07-07 23:15:00,
2013-07-07 19:25:00,90.2,71.0,29.91,SW,219,6.0,0.0,53,0.00,,,0.00,oem by Ross Wheeler,2013-07-07 23:25:00,
2013-07-07 19:30:00,90.2,71.0,29.91,WSW,257,1.0,0.0,53,0.00,,,0.00,oem by Ross Wheeler,2013-07-07 23:30:00,
2013-07-07 19:40:00,89.9,71.0,29.91,WNW,298,0.0,0.0,54,0.00,,,0.00,oem by Ross Wheeler,2013-07-07 23:40:00,
2013-07-07 19:45:00,89.7,71.0,29.91,South,176,3.0,0.0,55,0.00,,,0.00,oem by Ross Wheeler,2013-07-07 23:45:00,
2013-07-07 19:55:00,89.3,72.0,29.91,SW,216,2.0,0.0,56,0.00,,,0.00,oem by Ross Wheeler,2013-07-07 23:55:00,
2013-07-07 20:00:00,89.1,72.0,29.91,West,268,3.0,0.0,57,0.00,,,0.00,oem by Ross Wheeler,2013-07-08 00:00:00,
2013-07-07 20:10:00,88.7,72.0,29.91,South,175,0.0,0.0,58,0.00,,,0.00,oem by Ross Wheeler,2013-07-08 00:10:00,
2013-07-07 20:15:00,88.5,72.0,29.92,SSW,193,2.0,0.0,58,0.00,,,0.00,oem by Ross Wheeler,2013-07-08 00:15:00,
2013-07-07 20:25:00,88.2,72.0,29.92,SW,217,3.0,0.0,59,0.00,,,0.00,oem by Ross Wheeler,2013-07-08 00:25:00,
2013-07-07 20:30:00,88.2,73.0,29.93,South,186,0.0,0.0,60,0.00,,,0.00,oem by Ross Wheeler,2013-07-08 00:30:00,
2013-07-07 20:40:00,88.0,72.0,29.93,SSW,196,4.0,0.0,60,0.00,,,0.00,oem by Ross Wheeler,2013-07-08 00:40:00,
2013-07-07 20:45:00,88.0,73.0,29.94,South,175,1.0,0.0,61,0.00,,,0.00,oem by Ross Wheeler,2013-07-08 00:45:00,
2013-07-07 20:55:00,87.8,73.0,29.94,West,260,6.0,0.0,61,0.00,,,0.00,oem by Ross Wheeler,2013-07-08 00:55:00,
2013-07-07 21:00:00,87.4,71.0,29.95,West,277,5.0,0.0,59,0.00,,,0.00,oem by Ross Wheeler,2013-07-08 01:00:00,
2013-07-07 21:10:00,86.2,71.0,29.95,NNW,342,0.0,0.0,60,0.00,,,0.00,oem by Ross Wheeler,2013-07-08 01:10:00,
2013-07-07 21:15:00,85.5,70.0,29.93,NNW,342,0.0,0.0,60,0.00,,,0.00,oem by Ross Wheeler,2013-07-08 01:15:00,
2013-07-07 21:25:00,84.7,71.0,29.93,SE,126,0.0,0.0,63,0.00,,,0.00,oem by Ross Wheeler,2013-07-08 01:25:00,
2013-07-07 21:30:00,84.1,70.0,29.93,SE,124,0.0,0.0,63,0.00,,,0.00,oem by Ross Wheeler,2013-07-08 01:30:00,
2013-07-07 21:40:00,83.2,69.0,29.93,SE,126,0.0,0.0,62,0.00,,,0.00,oem by Ross Wheeler,2013-07-08 01:40:00,
2013-07-07 21:45:00,82.6,68.0,29.94,SSW,206,0.0,0.0,62,0.00,,,0.00,oem by Ross Wheeler,2013-07-08 01:45:00,
2013-07-07 21:55:00,82.0,69.0,29.94,SSW,206,0.0,0.0,65,0.00,,,0.00,oem by Ross Wheeler,2013-07-08 01:55:00,
2013-07-07 22:00:00,81.6,69.0,29.93,SSW,206,0.0,0.0,65,0.00,,,0.00,oem by Ross Wheeler,2013-07-08 02:00:00,
2013-07-07 22:10:00,81.0,69.0,29.93,SSW,206,0.0,0.0,68,0.00,,,0.00,oem by Ross Wheeler,2013-07-08 02:10:00,
2013-07-07 22:15:00,80.8,68.0,29.93,SW,217,0.0,0.0,65,0.00,,,0.00,oem by Ross Wheeler,2013-07-08 02:15:00,
2013-07-07 22:25:00,80.6,68.0,29.93,South,188,1.0,0.0,65,0.00,,,0.00,oem by Ross Wheeler,2013-07-08 02:25:00,
2013-07-07 22:30:00,80.8,67.0,29.93,South,179,1.0,0.0,64,0.00,,,0.00,oem by Ross Wheeler,2013-07-08 02:30:00,
2013-07-07 22:40:00,80.8,68.0,29.93,SSE,168,3.0,0.0,65,0.00,,,0.00,oem by Ross Wheeler,2013-07-08 02:40:00,
2013-07-07 22:45:00,80.8,69.0,29.94,SSW,198,0.0,0.0,67,0.00,,,0.00,oem by Ross Wheeler,2013-07-08 02:45:00,
2013-07-07 22:55:00,80.4,69.0,29.94,SSW,193,5.0,0.0,68,0.00,,,0.00,oem by Ross Wheeler,2013-07-08 02:55:00,
2013-07-07 23:00:00,80.1,69.0,29.95,SW,222,0.0,0.0,69,0.00,,,0.00,oem by Ross Wheeler,2013-07-08 03:00:00,
2013-07-07 23:10:00,79.5,69.0,29.95,WSW,257,1.0,0.0,70,0.00,,,0.00,oem by Ross Wheeler,2013-07-08 03:10:00,
2013-07-07 23:15:00,79.3,69.0,29.95,WSW,253,3.0,0.0,70,0.00,,,0.00,oem by Ross Wheeler,2013-07-08 03:15:00,
2013-07-07 23:25:00,79.0,68.0,29.95,NW,308,3.0,0.0,69,0.00,,,0.00,oem by Ross Wheeler,2013-07-08 03:25:00,
2013-07-07 23:30:00,78.8,68.0,29.95,SW,219,0.0,0.0,70,0.00,,,0.00,oem by Ross Wheeler,2013-07-08 03:30:00,
2013-07-07 23:40:00,78.4,68.0,29.95,SSW,209,0.0,0.0,71,0.00,,,0.00,oem by Ross Wheeler,2013-07-08 03:40:00,
2013-07-07 23:45:00,78.2,68.0,29.96,SW,219,0.0,0.0,72,0.00,,,0.00,oem by Ross Wheeler,2013-07-08 03:45:00,
2013-07-07 23:55:00,78.0,68.0,29.96,SSW,196,0.0,0.0,72,0.00,,,0.00,oem by Ross Wheeler,2013-07-08 03:55:00,